TimeCDT,TemperatureF,Dew PointF,Humidity,Sea Level PressureIn,VisibilityMPH,Wind Direction,Wind SpeedMPH,Gust SpeedMPH,PrecipitationIn,Events,Conditions,WindDirDegrees,DateUTC
12:53 AM,66.9,64.0,90,30.09,9.0,Calm,Calm,-,N/A,,Clear,0,2013-05-12 05:53:00
1:53 AM,66.0,63.0,90,30.08,9.0,Calm,Calm,-,N/A,,Clear,0,2013-05-12 06:53:00
2:53 AM,64.0,62.1,93,30.07,7.0,NE,3.5,-,N/A,,Clear,40,2013-05-12 07:53:00
3:53 AM,64.9,63.0,93,30.08,7.0,Calm,Calm,-,N/A,,Clear,0,2013-05-12 08:53:00
4:53 AM,63.0,61.0,93,30.08,6.0,Calm,Calm,-,N/A,,Clear,0,2013-05-12 09:53:00
5:53 AM,62.1,59.0,90,30.09,10.0,North,4.6,-,N/A,,Clear,10,2013-05-12 10:53:00
6:53 AM,62.1,60.1,93,30.11,8.0,Calm,Calm,-,N/A,,Clear,0,2013-05-12 11:53:00
7:53 AM,66.0,61.0,84,30.12,10.0,NNE,5.8,-,N/A,,Clear,30,2013-05-12 12:53:00
8:53 AM,69.1,61.0,75,30.13,10.0,NNE,6.9,-,N/A,,Clear,30,2013-05-12 13:53:00
9:53 AM,72.0,57.9,61,30.14,10.0,NNE,11.5,18.4,N/A,,Clear,20,2013-05-12 14:53:00
10:53 AM,75.9,57.9,54,30.15,10.0,North,11.5,-,N/A,,Clear,10,2013-05-12 15:53:00
11:53 AM,75.9,57.9,54,30.17,10.0,NNE,10.4,-,N/A,,Clear,30,2013-05-12 16:53:00
12:53 PM,78.1,57.9,50,30.15,10.0,NNE,12.7,-,N/A,,Clear,20,2013-05-12 17:53:00
1:53 PM,78.1,57.0,48,30.14,10.0,North,11.5,-,N/A,,Clear,10,2013-05-12 18:53:00
2:53 PM,80.1,55.9,43,30.12,10.0,NNE,10.4,21.9,N/A,,Clear,20,2013-05-12 19:53:00
3:53 PM,79.0,57.9,48,30.12,10.0,NNE,9.2,-,N/A,,Partly Cloudy,20,2013-05-12 20:53:00
4:53 PM,78.1,57.9,50,30.11,10.0,NNE,11.5,-,N/A,,Partly Cloudy,20,2013-05-12 21:53:00
5:53 PM,75.9,57.9,54,30.10,10.0,North,12.7,-,N/A,,Clear,10,2013-05-12 22:53:00
6:53 PM,73.9,57.9,57,30.10,10.0,NNE,10.4,-,N/A,,Clear,20,2013-05-12 23:53:00
7:53 PM,71.1,55.0,57,30.12,10.0,North,11.5,-,N/A,,Clear,10,2013-05-13 00:53:00
8:53 PM,66.9,54.0,63,30.15,10.0,NE,5.8,-,N/A,,Clear,40,2013-05-13 01:53:00
9:53 PM,64.9,54.0,68,30.16,10.0,NNE,5.8,-,N/A,,Clear,30,2013-05-13 02:53:00
10:53 PM,62.1,53.1,72,30.18,10.0,North,5.8,-,N/A,,Clear,10,2013-05-13 03:53:00
11:53 PM,61.0,52.0,72,30.18,10.0,NNE,5.8,-,N/A,,Clear,30,2013-05-13 04:53:00